TimeEST,TemperatureF,Dew PointF,Humidity,Sea Level PressureIn,VisibilityMPH,Wind Direction,Wind SpeedMPH,Gust SpeedMPH,PrecipitationIn,Events,Conditions,WindDirDegrees,DateUTC
12:54 AM,3.2,-14.8,43,-9999,110.0,NNW,31.1,-,N/A,,Partly Cloudy,330,2013-01-03 05:54:00
1:48 AM,1.4,-16.6,43,-9999,110.0,NNW,24.2,-,N/A,,Partly Cloudy,330,2013-01-03 06:48:00
2:49 AM,1.4,-14.8,47,-9999,110.0,NNW,29.9,-,N/A,,Scattered Clouds,330,2013-01-03 07:49:00
3:52 AM,-0.4,-11.2,60,-9999,110.0,NNW,33.4,-,N/A,,Scattered Clouds,330,2013-01-03 08:52:00
4:47 AM,1.4,-11.2,56,-9999,115.0,NNW,33.4,-,N/A,,Mostly Cloudy,330,2013-01-03 09:47:00
5:59 AM,1.4,-18.4,39,-9999,110.0,NNW,34.5,-,N/A,,Mostly Cloudy,330,2013-01-03 10:59:00
6:53 AM,1.4,-18.4,39,-9999,100.0,NNW,34.5,-,N/A,,Mostly Cloudy,330,2013-01-03 11:53:00
7:52 AM,-0.4,-18.4,43,-9999,120.0,NNW,35.7,-,N/A,,Scattered Clouds,330,2013-01-03 12:52:00
8:52 AM,3.2,-18.4,36,-9999,120.0,NNW,31.1,-,N/A,,Scattered Clouds,330,2013-01-03 13:52:00
9:53 AM,1.4,-16.6,43,-9999,120.0,NNW,27.6,-,N/A,,Scattered Clouds,330,2013-01-03 14:53:00
1:54 PM,-2.2,-29.2,27,-9999,120.0,NNW,38.0,-,N/A,,Mostly Cloudy,330,2013-01-03 18:54:00
2:57 PM,-5.8,-23.8,42,-9999,120.0,NNW,38.0,-,N/A,,Scattered Clouds,330,2013-01-03 19:57:00
3:53 PM,-5.8,-5.8,100,-9999,0.1,NW,50.6,58.7,N/A,Fog,Light Freezing Fog,310,2013-01-03 20:53:00
5:57 PM,-5.8,-5.8,100,-9999,0.0,NW,61.0,-,N/A,Fog,Light Freezing Fog,310,2013-01-03 22:57:00
6:52 PM,-5.8,-5.8,100,-9999,0.0,NW,58.7,-,N/A,Fog,Light Freezing Fog,310,2013-01-03 23:52:00
7:58 PM,-5.8,-5.8,100,-9999,0.0,WNW,51.8,-,N/A,Fog,Light Freezing Fog,300,2013-01-04 00:58:00
8:53 PM,-4.0,-4.0,100,-9999,0.0,WNW,55.2,-,N/A,Fog,Light Freezing Fog,300,2013-01-04 01:53:00
9:55 PM,-2.2,-2.2,100,-9999,0.0,WNW,59.8,-,N/A,Fog,Light Freezing Fog,300,2013-01-04 02:55:00
10:57 PM,-2.2,-2.2,100,-9999,0.0,WNW,51.8,-,N/A,Fog-Snow,Light Snow,300,2013-01-04 03:57:00
11:54 PM,-0.4,-0.4,100,-9999,0.0,WNW,55.2,-,N/A,Fog-Snow,Light Snow,300,2013-01-04 04:54:00